Regional Weather Roundup
Issued by NWS Goodland, KS

Home | Current Version | Previous Version | Text Only | Print | Product List | Glossary On
Versions: 1 2 3 4 5 6 7 8 9 10 11 12 13 14 15 16 17 18 19 20 21 22 23 24 25 26 27 28 29 30 31 32 33 34 35 36 37 38 39 40 41 42 43 44 45 46 47 48 49 50
000
ASUS43 KGLD 251408
RWRGLD

GOODLAND FORECAST AREA HOURLY WEATHER ROUNDUP
NATIONAL WEATHER SERVICE GOODLAND KS
800 AM MDT MON MAY 25 2015

...OFFICIAL OBSERVATIONS...

CITY           SKY/WX    TMP DP  RH WIND       PRES   REMARKS
GOODLAND KS    SUNNY     56  49  77 W9        29.85R
HILL CITY KS   SUNNY     59  54  83 CALM      29.84R
IMPERIAL NEB   PTSUNNY   55  50  83 W6        29.82R
MCCOOK NEB     MOSUNNY   59  53  80 SW5       29.81R
AKRON CO       MOSUNNY   51  47  86 NW14      29.87R
BURLINGTON CO  MOSUNNY   54  47  77 W12       29.87R
LIMON CO       PTSUNNY   49  44  83 NW8       29.92R
$$

...UNOFFICIAL OBSERVATIONS...

CITY           SKY/WX    TMP DP  RH WIND       PRES   REMARKS
COLBY KS       SUNNY     57  55  94 W8        29.85
GOVE KS          N/A     57  32  39 MISG        N/A
LENORA KS        N/A     59  32  36 MISG        N/A
NORTON KS      SUNNY     61  52  72 S7        29.82
SHARON SPRINGS   N/A     56  52  86 MISG        N/A
KIT CARSON CO    N/A     54  50  86 MISG        N/A
$$


USA.gov is the U.S. government's official web portal to all federal, state and local government web resources and services.